Wind_Speed
4 3 3 4 6 7 5 4 2 4 5 6 7 12 17 22 24 25 32 36 37 37 38 39 42 42 40 40 41 38 34 27 31 31 27 24 25 26 31 34 34 35 38 39 41
10 6 5 4 4 5 6 5 3 2 5 7 8 10 15 20 22 23 29 32 36 38 36 36 40 42 41 40 40 37 34 30 32 33 31 31 32 33 33 34 36 38 40 41 40
17 14 10 8 7 5 5 6 5 4 4 6 9 12 15 19 22 22 22 30 36 37 36 35 39 39 42 41 40 36 32 32 36 33 29 32 32 34 36 37 36 38 38 37 27
23 20 18 15 12 9 8 6 7 7 6 7 9 13 15 19 20 18 22 28 32 37 37 38 39 39 42 40 35 32 30 30 32 31 29 31 31 30 31 33 34 36 31 21 21
30 27 24 21 18 15 12 10 9 8 9 9 11 12 16 16 16 22 21 25 30 34 38 37 39 38 37 37 36 35 33 32 34 32 31 29 28 30 32 31 32 25 16 18 18
37 34 31 28 25 22 19 16 14 12 11 12 12 14 15 15 23 20 21 24 27 30 34 38 36 37 38 40 39 37 34 34 34 32 29 29 30 31 29 28 20 13 13 13 11
45 42 38 35 32 29 25 22 19 17 14 14 15 15 17 19 20 23 25 24 26 29 30 34 36 36 37 38 40 39 37 34 33 30 31 30 27 27 26 16 14 10 6 3 3
51 49 46 43 39 36 31 29 25 23 20 18 17 16 16 24 25 21 21 25 26 28 29 29 33 33 35 38 40 38 35 31 31 32 31 28 27 21 14 11 10 5 7 7 9
58 56 53 50 47 44 38 36 32 29 26 24 22 17 17 25 23 23 27 28 25 27 25 25 28 29 28 31 31 31 30 34 34 33 31 27 18 12 8 10 11 10 11 11 12
64 62 60 56 55 51 46 43 40 36 34 31 28 24 23 20 27 30 29 28 28 24 26 30 27 26 28 30 32 29 31 32 31 28 25 16 13 14 13 14 17 17 18 20 21
68 66 66 64 61 58 52 51 47 43 41 37 34 27 25 25 28 26 28 29 27 27 29 29 25 31 32 21 19 26 28 26 23 21 16 15 17 17 17 15 17 19 18 20 19
74 72 70 69 68 65 60 57 55 51 47 43 40 34 29 27 30 28 29 31 32 34 33 31 35 30 19 23 24 23 22 19 23 19 13 19 16 15 17 18 16 16 17 19 19
77 78 77 76 72 71 68 64 62 59 55 50 48 43 36 34 32 31 31 31 34 35 35 38 33 27 27 21 18 21 23 25 20 18 12 20 15 15 13 16 17 15 16 19 20
79 80 81 83 79 76 73 72 68 65 61 61 54 49 42 43 36 33 34 33 34 36 39 35 30 29 26 23 20 21 24 25 21 16 17 20 18 18 18 16 16 18 19 19 20
82 82 81 83 86 81 79 76 76 72 67 72 60 58 50 49 43 41 40 36 39 40 37 34 31 29 25 25 25 23 23 24 24 20 20 20 20 21 23 23 22 22 19 19 19
84 83 84 85 87 83 84 84 80 80 72 74 67 64 57 58 51 47 42 44 43 40 40 38 39 35 36 33 32 29 24 25 25 24 23 22 20 20 21 23 21 20 21 19 18
88 86 84 86 87 85 87 88 88 80 79 79 75 72 67 64 58 53 50 48 41 41 37 35 34 36 33 29 27 27 27 26 26 28 28 22 21 23 22 21 21 20 18 17 15
93 92 89 85 87 88 91 91 87 85 86 84 84 80 78 74 68 62 59 55 50 49 50 43 38 36 33 31 32 32 32 32 29 29 29 29 27 24 23 21 19 19 16 14 12
97 97 95 93 90 91 96 90 88 91 91 91 90 88 86 79 75 70 65 62 58 56 52 47 43 45 42 40 39 34 31 37 35 31 27 26 27 26 23 21 22 19 17 15 13
98 102 99 100 99 98 95 94 92 93 94 99 96 94 92 88 83 76 71 67 64 62 60 57 55 51 50 48 43 37 40 36 35 33 30 29 30 28 26 25 24 21 20 17 15
78 98 106 107 106 106 99 97 100 101 100 102 101 99 98 94 88 82 76 76 73 70 67 64 60 56 54 46 44 40 36 33 34 33 33 33 31 31 32 30 29 24 22 19 18
62 82 99 112 113 110 107 102 102 103 101 102 104 105 104 101 94 88 85 85 79 76 70 67 66 61 54 54 52 47 43 40 37 36 36 36 34 32 33 30 27 25 25 23 22
50 64 83 101 111 112 109 109 106 105 104 104 107 106 107 104 99 95 93 89 86 81 77 74 68 66 62 59 54 47 43 43 43 43 40 39 40 36 33 32 28 30 27 25 25
43 51 66 84 100 110 113 112 111 109 110 109 108 108 108 108 105 101 97 96 92 87 82 79 73 67 59 54 55 52 51 47 47 46 44 41 44 39 39 37 36 34 29 27 29
38 42 52 65 82 100 112 113 111 113 113 112 110 110 108 108 109 105 101 100 97 92 89 82 77 74 69 67 65 62 60 56 51 49 46 49 49 46 46 43 42 39 33 32 33
32 35 41 50 70 84 104 113 112 115 115 112 112 111 112 108 108 105 105 103 101 98 93 87 84 82 81 78 73 69 67 63 58 56 54 54 52 52 51 48 46 42 38 37 35
25 27 29 41 59 71 89 111 116 118 114 111 111 110 109 107 102 104 108 107 105 102 98 94 91 89 85 85 83 81 67 64 64 61 59 56 57 63 55 52 48 45 42 41 40
Wind_Direction
284 303 324 354 340 325 337 352 82 131 154 169 167 183 183 187 190 194 198 202 203 203 204 207 209 210 214 211 219 225 221 230 240 241 245 264 271 275 282 287 291 293 293 297 301
263 260 266 282 310 333 327 318 326 190 174 172 184 182 187 185 187 192 199 202 206 201 207 207 207 204 209 211 216 225 224 231 240 247 249 262 269 276 283 288 293 295 296 302 304
259 256 256 253 262 271 299 315 296 276 233 192 196 195 193 197 199 203 198 206 207 205 203 206 204 203 207 208 212 222 226 235 243 247 259 269 276 282 285 288 291 293 300 304 304
254 253 251 249 247 250 254 267 286 272 252 238 213 207 203 204 203 207 211 210 209 210 205 202 203 206 206 208 215 222 227 242 251 255 263 271 275 282 288 291 294 297 299 307 319
251 250 250 248 245 244 242 243 248 263 260 244 224 211 209 206 205 206 209 206 207 209 208 203 205 203 204 208 214 222 226 234 248 255 263 267 278 288 290 291 294 295 311 321 319
248 248 247 246 245 243 240 239 240 241 250 246 233 216 209 201 213 205 205 204 200 202 202 206 204 203 204 207 216 224 231 236 247 258 268 276 280 284 288 290 286 304 316 317 313
249 246 245 243 242 242 242 238 239 239 236 242 236 222 211 217 210 211 206 204 200 198 196 202 205 204 205 208 217 225 230 239 249 258 265 271 276 282 281 281 287 290 297 295 115
247 245 242 240 240 239 237 240 238 240 240 237 235 226 210 222 214 215 210 213 203 198 202 199 201 202 203 211 218 226 233 244 253 258 262 266 265 264 264 269 259 209 165 141 131
249 245 242 239 237 237 235 236 236 237 239 239 235 220 208 219 218 214 213 211 209 206 200 201 206 200 202 210 219 227 231 243 248 252 253 250 247 228 203 215 160 174 164 154 144
249 247 243 238 238 233 232 233 233 234 235 236 232 219 214 212 214 216 212 213 211 206 197 206 209 212 217 220 223 228 237 239 240 240 232 219 207 176 168 154 136 143 145 138 141
249 246 244 241 238 234 227 230 230 230 231 235 231 214 212 216 216 219 214 214 210 206 204 205 204 212 211 213 222 222 222 222 219 209 203 197 191 177 162 153 144 145 148 141 137
249 247 244 241 239 235 229 228 227 228 228 230 232 220 211 221 214 214 213 209 208 205 198 196 203 209 191 185 196 202 198 192 183 167 174 183 191 184 169 158 151 153 150 142 134
247 247 245 241 237 237 233 228 227 225 227 226 228 223 211 218 210 210 213 208 207 201 196 199 200 174 175 175 182 179 178 176 176 183 183 193 199 189 174 161 159 155 151 142 137
248 246 244 243 239 234 233 230 227 225 224 227 224 225 221 214 211 207 208 202 199 200 199 190 171 178 180 183 174 176 181 180 192 194 170 186 180 174 167 157 155 154 150 144 141
248 247 244 243 242 236 232 231 228 226 224 226 220 224 218 216 208 207 200 196 198 193 194 177 178 186 191 196 189 181 174 173 174 164 162 158 164 164 154 153 157 154 156 154 150
249 247 244 243 242 237 236 231 227 226 222 227 219 224 218 225 209 206 200 201 199 194 191 183 191 190 200 195 189 183 185 174 173 171 170 162 170 171 165 161 160 163 165 167 164
249 246 243 242 240 238 234 233 228 223 225 224 223 218 220 221 217 208 207 206 200 203 208 198 201 204 203 206 190 194 189 194 192 185 177 173 183 190 178 179 174 177 181 177 181
247 243 241 240 238 235 235 231 229 225 223 222 224 220 220 217 219 212 209 209 206 203 209 200 205 213 209 214 201 200 199 195 202 198 192 182 191 197 191 192 193 194 200 192 195
245 241 237 235 235 234 233 229 227 226 222 221 221 222 219 218 218 217 210 210 209 209 213 208 205 211 206 210 206 204 199 206 204 200 205 198 194 202 204 205 209 208 211 202 192
243 237 233 232 230 231 230 228 225 225 222 221 218 220 220 217 217 217 217 212 212 214 214 213 208 211 213 210 209 204 208 203 208 208 205 214 209 204 210 212 219 218 213 211 212
240 236 230 228 226 226 226 225 223 222 220 220 217 218 220 218 216 215 217 217 213 216 217 217 216 213 217 214 215 212 215 216 215 215 209 212 214 217 217 218 222 219 220 223 229
240 233 230 227 223 220 222 223 223 222 221 219 219 216 219 218 216 214 215 219 216 216 220 222 221 218 217 223 219 214 214 217 217 219 214 216 215 214 223 226 227 232 229 227 230
245 236 230 227 224 219 217 219 221 220 219 219 220 218 217 218 216 214 216 219 220 217 218 223 226 221 218 221 224 222 218 219 219 223 223 221 227 219 222 231 231 234 238 240 246
254 239 232 230 225 221 215 215 217 219 218 217 217 218 216 217 216 215 216 218 220 221 218 220 223 230 230 227 228 231 232 222 221 223 224 225 232 231 228 226 226 234 239 252 257
260 245 234 225 225 222 216 213 213 217 217 216 216 217 216 215 215 215 215 217 220 222 222 219 220 223 228 231 228 226 228 229 224 224 225 226 233 231 235 232 232 236 238 243 249
264 251 236 224 224 220 217 211 211 215 217 214 215 217 216 214 214 214 216 217 219 221 222 222 220 222 223 225 229 230 230 231 231 227 226 231 237 237 238 238 238 240 242 245 252
271 257 237 221 223 218 216 212 210 213 216 214 215 216 217 214 212 213 216 217 218 219 221 222 222 223 225 224 225 225 230 234 235 235 235 236 237 241 241 244 247 249 251 253 254
Height
10929 10927 10926 10925 10924 10924 10923 10923 10923 10922 10922 10922 10922 10922 10923 10925 10928 10932 10936 10940 10945 10950 10955 10961 10966 10973 10978 10983 10986 10990 10994 10995 10992 10995 10998 10998 10999 10999 10999 10997 10996 10994 10992 10988 10985
10927 10927 10926 10925 10924 10924 10923 10922 10922 10922 10922 10922 10922 10922 10924 10925 10928 10930 10932 10938 10941 10947 10952 10958 10963 10970 10975 10980 10985 10987 10989 10989 10987 10990 10995 10995 10994 10995 10994 10993 10992 10989 10986 10983 10980
10924 10924 10924 10924 10924 10923 10923 10922 10921 10921 10921 10922 10922 10922 10923 10925 10927 10929 10933 10934 10937 10944 10949 10955 10961 10967 10972 10977 10981 10984 10987 10987 10984 10988 10991 10991 10991 10991 10990 10989 10988 10986 10982 10979 10976
10920 10921 10921 10921 10922 10921 10921 10921 10920 10920 10920 10920 10921 10921 10922 10924 10926 10928 10929 10932 10935 10940 10945 10950 10957 10964 10969 10976 10980 10983 10986 10985 10983 10986 10988 10988 10989 10990 10989 10986 10984 10981 10979 10976 10972
10914 10915 10916 10917 10918 10919 10919 10919 10919 10918 10918 10918 10919 10920 10921 10923 10925 10924 10926 10928 10931 10935 10942 10947 10953 10960 10968 10974 10976 10977 10982 10983 10980 10983 10987 10986 10986 10985 10984 10982 10979 10978 10975 10973 10971
10907 10909 10910 10912 10913 10915 10916 10916 10916 10916 10916 10916 10916 10918 10919 10921 10920 10923 10925 10926 10929 10932 10937 10942 10949 10957 10964 10970 10971 10973 10977 10978 10979 10979 10982 10983 10983 10982 10981 10979 10977 10976 10973 10973 10972
10897 10899 10902 10905 10906 10909 10911 10912 10912 10913 10913 10913 10913 10915 10917 10917 10919 10919 10922 10924 10927 10930 10934 10938 10946 10952 10959 10964 10966 10969 10972 10974 10975 10975 10975 10978 10979 10979 10976 10977 10975 10976 10974 10975 10974
10884 10887 10891 10895 10898 10900 10904 10906 10908 10909 10910 10910 10910 10912 10914 10913 10916 10918 10921 10923 10926 10928 10932 10937 10941 10949 10954 10958 10962 10965 10970 10972 10972 10972 10974 10975 10975 10976 10975 10975 10975 10975 10975 10975 10977
10871 10874 10878 10882 10886 10890 10896 10898 10901 10903 10904 10905 10905 10908 10910 10909 10914 10916 10916 10919 10924 10928 10932 10936 10940 10945 10952 10955 10959 10962 10967 10966 10968 10970 10971 10972 10973 10974 10974 10974 10975 10975 10976 10977 10978
10855 10860 10864 10869 10873 10877 10886 10888 10892 10895 10896 10897 10899 10902 10905 10908 10908 10909 10914 10916 10919 10925 10930 10932 10937 10943 10947 10951 10954 10957 10960 10962 10963 10966 10967 10969 10971 10973 10974 10973 10974 10976 10978 10978 10980
10836 10841 10847 10853 10859 10864 10874 10877 10882 10886 10888 10892 10894 10898 10900 10902 10904 10908 10911 10914 10917 10922 10926 10930 10935 10937 10938 10946 10952 10953 10954 10957 10960 10963 10965 10966 10969 10972 10974 10974 10975 10977 10980 10980 10982
10815 10820 10827 10834 10842 10848 10858 10864 10869 10874 10879 10883 10887 10892 10896 10898 10899 10902 10906 10909 10913 10915 10921 10927 10928 10932 10941 10944 10947 10948 10951 10955 10958 10962 10965 10966 10970 10972 10974 10975 10976 10979 10982 10982 10983
10792 10797 10804 10810 10821 10830 10841 10850 10855 10861 10868 10873 10877 10883 10888 10891 10894 10897 10900 10904 10908 10913 10916 10920 10923 10933 10937 10941 10943 10946 10949 10953 10958 10960 10962 10968 10971 10972 10975 10977 10978 10980 10983 10984 10985
10768 10774 10781 10786 10797 10810 10821 10831 10840 10848 10855 10856 10865 10873 10882 10882 10888 10892 10895 10899 10904 10908 10912 10917 10925 10930 10934 10938 10941 10943 10948 10953 10957 10960 10961 10966 10970 10972 10974 10977 10980 10982 10983 10984 10985
10741 10748 10757 10765 10771 10787 10799 10810 10821 10831 10843 10836 10856 10860 10871 10873 10880 10884 10887 10894 10897 10901 10911 10916 10921 10926 10932 10934 10938 10942 10946 10951 10955 10959 10962 10965 10970 10974 10974 10976 10979 10981 10984 10984 10984
10712 10720 10731 10739 10744 10768 10776 10786 10800 10810 10828 10827 10843 10848 10860 10860 10871 10877 10885 10886 10891 10899 10903 10910 10912 10920 10922 10928 10933 10939 10945 10951 10955 10958 10960 10964 10970 10975 10975 10976 10980 10982 10984 10986 10986
10679 10690 10700 10712 10723 10739 10748 10757 10773 10797 10804 10813 10823 10832 10841 10848 10860 10869 10875 10881 10892 10898 10904 10910 10915 10916 10922 10929 10936 10941 10944 10949 10954 10956 10957 10961 10968 10973 10974 10977 10978 10982 10984 10986 10987
10641 10653 10668 10683 10694 10709 10714 10730 10753 10773 10778 10793 10800 10813 10819 10829 10841 10855 10864 10872 10881 10886 10888 10899 10908 10912 10920 10924 10929 10935 10941 10945 10948 10954 10957 10958 10965 10971 10973 10977 10979 10981 10984 10984 10987
10597 10609 10632 10648 10661 10672 10680 10706 10729 10737 10754 10766 10778 10788 10800 10816 10828 10840 10854 10862 10870 10876 10884 10893 10901 10900 10909 10912 10921 10930 10938 10939 10944 10950 10956 10959 10964 10968 10972 10976 10979 10981 10984 10984 10986
10549 10563 10589 10606 10623 10634 10652 10675 10693 10709 10722 10731 10752 10766 10780 10795 10810 10828 10840 10852 10861 10867 10873 10880 10885 10892 10897 10905 10915 10925 10926 10935 10942 10948 10952 10957 10961 10963 10967 10972 10977 10979 10981 10983 10984
10506 10515 10540 10557 10577 10598 10621 10638 10655 10667 10684 10703 10726 10743 10756 10774 10796 10814 10827 10833 10845 10853 10860 10869 10877 10886 10891 10906 10912 10919 10927 10933 10937 10944 10950 10953 10957 10960 10963 10966 10970 10973 10977 10980 10981
10473 10478 10494 10509 10532 10559 10586 10609 10625 10646 10668 10685 10701 10718 10730 10752 10776 10797 10806 10811 10830 10841 10855 10862 10866 10877 10891 10892 10899 10910 10919 10926 10932 10938 10944 10948 10952 10957 10959 10961 10966 10969 10971 10975 10976
10445 10451 10463 10474 10500 10526 10553 10573 10595 10617 10639 10657 10673 10694 10713 10736 10758 10776 10786 10799 10811 10826 10839 10849 10861 10867 10878 10884 10894 10907 10916 10922 10927 10931 10939 10943 10944 10952 10955 10958 10960 10962 10966 10969 10971
10425 10431 10438 10452 10471 10495 10519 10539 10561 10581 10602 10625 10642 10666 10689 10712 10734 10754 10772 10781 10794 10809 10824 10835 10849 10862 10879 10890 10890 10897 10903 10912 10918 10925 10931 10937 10937 10945 10950 10955 10957 10958 10961 10963 10964
10409 10411 10417 10434 10445 10467 10490 10513 10538 10554 10572 10599 10621 10638 10665 10689 10711 10735 10754 10764 10778 10794 10806 10826 10841 10848 10861 10868 10875 10884 10888 10897 10909 10915 10923 10921 10926 10934 10938 10944 10950 10955 10960 10960 10960
10394 10396 10403 10416 10421 10440 10462 10492 10513 10524 10543 10576 10597 10617 10637 10664 10692 10720 10735 10748 10761 10777 10791 10811 10824 10830 10836 10846 10858 10869 10877 10886 10895 10903 10910 10911 10918 10922 10927 10934 10941 10948 10953 10956 10958
10384 10385 10392 10400 10404 10420 10438 10462 10486 10497 10527 10558 10581 10602 10623 10651 10681 10699 10711 10727 10742 10758 10774 10791 10801 10811 10824 10828 10835 10844 10871 10880 10883 10891 10897 10905 10907 10902 10917 10925 10932 10939 10944 10948 10952